Omaha, IA

10:16 AM CST on February 20, 2018 (GMT -0600)
Eppley Airfield

Weather History for KOMA - November, 2010

Change the Weather History Date:

Monday, November 29, 2010

  Actual Average Record
Temperature  
Mean Temperature 40 °F 32 °F  
Max Temperature 54 °F 41 °F 72 °F (1998)
Min Temperature 25 °F 22 °F -6 °F (1875)
Degree Days  
Heating Degree Days 25 33  
Month to date heating degree days 704 751  
Since 1 July heating degree days 1001 1236  
Cooling Degree Days 0 0  
Month to date cooling degree days 0 0  
Year to date cooling degree days 1388 1112  
Moisture  
Dew Point 29 °F    
Average Humidity 64    
Maximum Humidity 82    
Minimum Humidity 46    
Precipitation  
Precipitation 0.24 in 0.04 in 1.84 in (1997)
Month to date precipitation 2.35 1.59  
Year to date precipitation 34.42 29.53  
Snow  
Snow 0.00 in 0.10 in - ()
Month to date snowfall 2.8 2.3  
Since 1 July snowfall 2.8 2.6  
Snow Depth 0.00 in    
Sea Level Pressure  
Sea Level Pressure 29.62 in    
Wind  
Wind Speed 20 mph (WNW)    
Max Wind Speed 31 mph    
Max Gust Speed 41 mph    
Visibility 10 miles    
Events Rain , Hail , Thunderstorm    
T = Trace of Precipitation, MM = Missing Value Source: NWS Daily Summary

Daily Weather History Graph

Daily Weather History Graph

Search for Another Location

Airport or City:

Trip Planner

Search our weather history database for the weather conditions in past years. The results will help you decide how hot, cold, wet, or windy it might be!

Date:

Astronomy

Nov. 29, 2010 Rise Set
Actual Time 7:27 AM CST 4:55 PM CST
Civil Twilight 6:57 AM CST 5:26 PM CST
Nautical Twilight 6:23 AM CST 6:00 PM CST
Astronomical Twilight 5:49 AM CST 6:33 PM CST
Moon 12:31 AM CST (11/29) 1:00 PM CST (11/29)
Length of Visible Light 10h 29m
Length of Day
9h 27m
Last Quarter, 40% of the Moon is Illuminated
Nov 29
Last Quarter
Dec 5
New
Dec 13
First Quarter
Dec 21
Full
Dec 27
Last Quarter

Hourly Weather History & Observations

Time (CST) Temp. Windchill Dew Point Humidity Pressure Visibility Wind Dir Wind Speed Gust Speed Precip Events Conditions
12:52 AM 48.9 °F - 30.9 °F 50% 29.55 in 10.0 mi SSE 26.5 mph 33.4 mph N/A   Mostly Cloudy
1:52 AM 46.0 °F 38.5 °F 32.0 °F 58% 29.54 in 10.0 mi SSE 19.6 mph - N/A   Scattered Clouds
2:52 AM 45.0 °F 37.4 °F 33.1 °F 63% 29.54 in 10.0 mi SE 18.4 mph - N/A   Scattered Clouds
3:52 AM 45.0 °F 37.4 °F 33.1 °F 63% 29.53 in 10.0 mi SSE 18.4 mph - N/A   Mostly Cloudy
4:52 AM 48.0 °F - 34.0 °F 58% 29.53 in 10.0 mi SSE 19.6 mph - N/A   Overcast
5:52 AM 48.0 °F - 35.1 °F 61% 29.52 in 10.0 mi SE 17.3 mph - N/A   Overcast
6:52 AM 48.2 °F - 35.6 °F 62% 29.52 in 10.0 mi SSE 16.1 mph - N/A   Overcast
7:52 AM 48.0 °F - 37.0 °F 66% 29.54 in 10.0 mi SSE 17.3 mph - N/A   Overcast
8:22 AM 48.2 °F - 37.4 °F 66% 29.53 in 10.0 mi SSE 15.0 mph - N/A   Overcast
8:52 AM 48.9 °F - 37.9 °F 66% 29.54 in 10.0 mi SE 15.0 mph - N/A   Overcast
9:34 AM 50.0 °F - 39.2 °F 66% 29.52 in 10.0 mi SSE 13.8 mph - N/A   Overcast
9:52 AM 51.1 °F - 39.9 °F 66% 29.52 in 10.0 mi SSE 15.0 mph - N/A   Overcast
10:52 AM 52.0 °F - 39.9 °F 63% 29.51 in 10.0 mi SSE 12.7 mph - N/A   Overcast
11:52 AM 42.1 °F 33.3 °F 32.0 °F 67% 29.52 in 10.0 mi NW 19.6 mph 27.6 mph 0.00 in Rain Light Rain
12:00 PM 37.4 °F 27.5 °F 32.0 °F 81% 29.52 in 4.0 mi North 18.4 mph 23.0 mph 0.00 in Rain , Hail , Thunderstorm Thunderstorms with Hail
12:07 PM 35.6 °F 25.2 °F 30.2 °F 81% 29.53 in 4.0 mi NNW 18.4 mph 24.2 mph 0.21 in Rain , Thunderstorm Heavy Thunderstorms and Rain
12:30 PM 37.4 °F 28.9 °F 30.2 °F 75% 29.53 in 10.0 mi NNW 13.8 mph - 0.24 in   Mostly Cloudy
12:52 PM 39.0 °F 29.9 °F 32.0 °F 76% 29.55 in 10.0 mi NW 17.3 mph - 0.24 in   Scattered Clouds
1:26 PM 35.6 °F 25.2 °F 30.2 °F 81% 29.56 in 10.0 mi NNW 18.4 mph - N/A   Mostly Cloudy
1:52 PM 33.1 °F 21.2 °F 28.0 °F 82% 29.60 in 10.0 mi WNW 20.7 mph - N/A   Overcast
2:52 PM 30.0 °F 16.3 °F 25.0 °F 82% 29.64 in 10.0 mi NW 24.2 mph 31.1 mph N/A   Overcast
3:52 PM 28.0 °F 13.9 °F 23.0 °F 81% 29.70 in 10.0 mi NW 23.0 mph - N/A   Overcast
4:52 PM 27.0 °F 12.5 °F 21.0 °F 78% 29.73 in 10.0 mi NW 23.0 mph 29.9 mph N/A   Overcast
5:52 PM 27.0 °F 11.6 °F 19.0 °F 72% 29.77 in 10.0 mi NW 26.5 mph 35.7 mph N/A   Overcast
6:52 PM 26.1 °F 12.3 °F 19.0 °F 75% 29.81 in 10.0 mi NW 19.6 mph 31.1 mph N/A   Overcast
7:52 PM 26.1 °F 11.6 °F 18.0 °F 71% 29.82 in 10.0 mi NW 21.9 mph 32.2 mph N/A   Overcast
8:52 PM 26.1 °F 12.0 °F 18.0 °F 71% 29.83 in 10.0 mi NW 20.7 mph 33.4 mph N/A   Overcast
9:52 PM 26.1 °F 12.7 °F 18.0 °F 71% 29.84 in 10.0 mi NW 18.4 mph 27.6 mph N/A   Overcast
10:52 PM 25.0 °F 11.3 °F 16.0 °F 69% 29.86 in 10.0 mi NW 18.4 mph 31.1 mph N/A   Overcast
11:52 PM 25.0 °F 9.9 °F 16.0 °F 69% 29.88 in 10.0 mi NW 23.0 mph 34.5 mph N/A   Overcast